Location: Unspecified
(49.2170°N, 0.0000°E)
Time: 03:52:38
(UTC+00:00)

Vanguard 3 - Pass Details

Date: 29 June 2019
Orbit: 507 x 3264 km, 33.4° (Epoch: 19 July)

Event Time Altitude Azimuth Distance (km) Brightness Sun altitude
Rises 14:24:17 0° 267° (W) 5,610 11.9 52.1°
Reaches altitude 10° 14:30:32 10° 248° (WSW) 3,939 11.5 51.2°
Maximum altitude 14:35:17 15° 219° (SW) 3,042 11.0 50.5°
Drops below altitude 10° 14:39:02 10° 188° (S) 2,946 10.5 50.0°
Sets 14:42:35 0° 163° (SSE) 3,481 10.5 49.5°
